Location: Ecklingerode
(51.5036°N, 10.3122°E)
Time: 07:20:11
(UTC+00:00)

Cosmos 1300 - Pass Details

Date: 29 October 2020
Orbit: 511 x 514 km, 82.5° (Epoch: 01 December)

Event Time Altitude Azimuth Distance (km) Brightness Sun altitude
Rises 17:05:22 0° 192° (SSW) 2,620 6.6 -11.2°
Reaches altitude 10° 17:07:29 10° 194° (SSW) 1,738 5.7 -11.5°
Maximum altitude 17:11:18 78° 280° (W) 534 2.8 -12.1°
Drops below altitude 10° 17:15:09 10° 8° (N) 1,754 5.2 -12.7°
Sets 17:17:18 0° 10° (N) 2,646 6.1 -13.0°
